Location: *
(46.1333°S, 161.2167°W)
Time: 04:34:33
(UTC+00:00)

SMAP - Pass Details

Date: 15 July 2020
Orbit: 681 x 683 km, 98.1° (Epoch: 10 August)

Event Time Altitude Azimuth Distance (km) Brightness Sun altitude
Rises 15:57:08 0° 19° (NNE) 3,041 6.7 -24.4°
Reaches altitude 10° 15:59:21 10° 20° (NNE) 2,134 5.9 -24.0°
Maximum altitude 16:04:02 80° 105° (ESE) 710 3.1 -23.2°
Enters shadow 16:06:59 23° 189° (S) 1,462 4.6 -22.7°
